Location: Melbourne
(37.8666°S, 145.1333°E)
Time: 14:52:57
(UTC+10:00)

Hubble Space Telescope - Visible Passes

Search period start: 24 July 2017 00:00
Search period end: 03 August 2017 00:00
Orbit: 538 x 542 km, 28.5° (Epoch: 23 July)

Date Brightness Start Highest point End Pass type
(mag) Time Alt. Az. Time Alt. Az. Time Alt. Az.
24 Jul 2.8 05:49:04 15° NNW 05:51:03 21° N 05:54:15 10° NE visible
25 Jul 2.6 05:39:39 19° NNW 05:40:52 22° N 05:44:08 10° NE visible
26 Jul 2.5 05:30:10 22° N 05:30:42 22° N 05:33:58 10° NE visible
27 Jul 2.6 05:20:40 22° N 05:20:40 22° N 05:23:47 10° NE visible
28 Jul 2.8 05:11:09 20° NNE 05:11:09 20° NNE 05:13:32 10° NE visible
28 Jul 3.2 06:49:00 10° NW 06:50:55 13° NNW 06:52:50 10° N visible
29 Jul 3.1 05:01:39 17° NNE 05:01:39 17° NNE 05:03:15 10° NE visible
29 Jul 3.3 06:39:40 10° NW 06:40:41 11° NNW 06:41:43 10° N visible
30 Jul 3.4 04:52:09 13° NNE 04:52:09 13° NNE 04:52:55 10° NE visible
